Location: Newark
(27.9675°N, 86.8869°E)
Time: 17:58:43
(UTC+00:00)

Courier 1B Rocket - Pass Details

Date: 15 October 2019
Orbit: 920 x 1202 km, 28.2° (Epoch: 19 November)

Event Time Altitude Azimuth Distance (km) Brightness Sun altitude
Rises 06:41:08 0° 265° (W) 3,917 8.3 52.2°
Reaches altitude 10° 06:45:11 10° 245° (WSW) 3,011 8.1 51.9°
Maximum altitude 06:49:17 16° 211° (SSW) 2,654 8.3 51.6°
Drops below altitude 10° 06:53:30 10° 177° (S) 3,091 8.4 51.2°
Sets 06:57:46 0° 156° (SSE) 4,076 8.6 50.9°
